Date String (YYYY-MM-DD hh:mm:ss) UTC,Instrument flags,absolute air pressure of the measurement (hPa),sample flow rate (lpm),inlet stack bypass flow (lpm),air temperature of the measurement (°C),ambient temperature measured by the external sensor (°C),aerosol sample conditioner tube jacket temperature (°C),OPC LED temperature (°C),internal box temperature (°C),relative humidity of the measurement (%),span deviation,mass concentration of particles derived from Lorenz-Mie calculation of OPC scattering (μg/m³),mass concentration of particles derived from Lorenz-Mie calculation of OPC scattering (μg/m³),mass concentration of particles derived from Lorenz-Mie calculation of OPC scattering (μg/m³)
DateTimeUTC,F1_M11,P_M11,Q1_M11,Q2_M11,T1_M11,T2_M11,T3_M11,T4_M11,T5_M11,U1_M11,ZSPAN_M11,X0_M11,X2_M11,X1_M11
2024-01-08 15:00:00,SystemResetWarning,0822.1,5.00,000.00,018.8,017.9,000.0,027.2,020.0,10.7,0000.0,0004.13,0001.92,0001.47
2024-01-08 15:01:00,SystemResetWarning,0822.2,5.02,000.00,018.8,017.9,000.0,027.2,020.0,10.7,0000.0,0003.16,0001.89,0001.48
2024-01-08 15:02:00,SystemResetWarning,0822.3,4.98,000.00,018.7,017.9,000.0,027.2,020.0,10.8,0000.0,0003.14,0001.88,0001.48
2024-01-08 15:03:00,SystemResetWarning,0822.4,5.00,000.00,018.7,017.9,000.0,027.2,020.0,10.8,0000.0,0003.24,0001.91,0001.47
2024-01-08 15:04:00,SystemResetWarning,0822.4,5.00,000.00,018.7,017.9,000.0,027.2,020.0,10.8,0000.0,0003.25,0001.95,0001.49
2024-01-08 15:05:00,SystemResetWarning,0822.4,5.01,000.00,018.7,017.9,000.0,027.2,020.0,10.8,0000.0,0003.25,0001.94,0001.48
2024-01-08 15:06:00,SystemResetWarning,0822.4,5.01,000.00,018.8,017.9,000.0,027.2,020.0,10.8,0000.0,0003.28,0001.91,0001.47
2024-01-08 15:07:00,SystemResetWarning,0822.4,5.00,000.00,018.8,017.9,000.0,027.2,020.2,10.8,0000.0,0003.24,0001.89,0001.47
2024-01-08 15:08:00,SystemResetWarning,0822.4,5.00,000.00,018.9,018.4,000.0,027.2,020.6,10.8,0000.0,0003.24,0001.85,0001.47
2024-01-08 15:09:00,SystemResetWarning,0822.4,5.00,000.00,019.0,019.0,000.0,027.2,020.7,10.7,0000.0,0003.59,0001.85,0001.47
2024-01-08 15:10:00,SystemResetWarning,0822.4,4.99,000.00,019.0,018.9,000.0,027.2,020.5,10.7,0000.0,0003.72,0001.84,0001.48
2024-01-08 15:11:00,SystemResetWarning,0822.4,5.01,000.00,019.0,018.8,000.0,027.2,020.3,10.7,0000.0,0004.04,0001.86,0001.49
2024-01-08 15:12:00,SystemResetWarning,0822.4,5.01,000.00,019.0,018.7,000.0,027.2,020.3,10.7,0000.0,0003.94,0001.83,0001.49
2024-01-08 15:13:00,SystemResetWarning,0822.4,5.00,000.00,019.0,018.6,000.0,027.2,020.2,10.7,0000.0,0003.84,0001.81,0001.49
2024-01-08 15:14:00,SystemResetWarning,0822.4,5.00,000.00,018.9,018.5,000.0,027.2,020.1,10.7,0000.0,0003.87,0001.84,0001.50
2024-01-08 15:15:00,SystemResetWarning,0822.4,5.01,000.00,018.9,018.4,000.0,027.2,020.1,10.8,0000.0,0003.86,0001.84,0001.51
2024-01-08 15:16:00,SystemResetWarning,0822.4,5.00,000.00,018.9,018.4,000.0,027.2,020.1,10.8,0000.0,0004.03,0001.86,0001.53
2024-01-08 15:17:00,SystemResetWarning,0822.4,5.00,000.00,018.9,018.3,000.0,027.2,020.0,10.8,0000.0,0004.02,0001.88,0001.53
2024-01-08 15:18:00,SystemResetWarning,0822.5,5.00,000.00,018.8,018.3,000.0,027.2,020.0,10.8,0000.0,0004.11,0001.93,0001.54
2024-01-08 15:19:00,SystemResetWarning,0822.8,5.00,000.00,018.8,018.2,000.0,027.2,020.0,10.8,0000.0,0004.04,0001.95,0001.56
2024-01-08 15:20:00,SystemResetWarning,0822.8,4.99,000.00,018.8,018.2,000.0,027.2,020.0,10.8,0000.0,0003.53,0001.93,0001.58
2024-01-08 15:21:00,SystemResetWarning,0823.1,4.99,000.00,018.8,018.1,000.0,027.2,020.0,10.8,0000.0,0003.46,0001.95,0001.59
2024-01-08 15:22:00,SystemResetWarning,0823.1,5.00,000.00,018.8,018.1,000.0,027.2,020.0,10.8,0000.0,0003.58,0002.02,0001.62
2024-01-08 15:23:00,SystemResetWarning,0823.1,5.00,000.00,018.8,018.1,000.0,027.2,020.0,10.8,0000.0,0003.70,0002.07,0001.64
2024-01-08 15:24:00,SystemResetWarning,0823.1,5.00,000.00,018.8,018.0,000.0,027.2,020.0,10.7,0000.0,0003.81,0002.12,0001.66
2024-01-08 15:25:00,SystemResetWarning,0822.8,5.00,000.00,018.8,018.0,000.0,027.2,020.0,10.7,0000.0,0003.82,0002.15,0001.68
2024-01-08 15:26:00,SystemResetWarning,0822.8,5.00,000.00,018.8,018.0,000.0,027.2,020.0,10.7,0000.0,0003.77,0002.15,0001.70
2024-01-08 15:27:00,SystemResetWarning,0822.9,5.01,000.00,018.8,018.0,000.0,027.2,020.0,10.7,0000.0,0003.74,0002.19,0001.72
2024-01-08 15:28:00,SystemResetWarning,0822.7,5.00,000.00,018.8,018.0,000.0,027.2,020.0,10.7,0000.0,0003.65,0002.19,0001.76
2024-01-08 15:29:00,SystemResetWarning,0822.7,4.99,000.00,018.8,017.9,000.0,027.2,020.0,10.7,0000.0,0003.56,0002.20,0001.80
2024-01-08 15:30:00,SystemResetWarning,0822.6,4.99,000.00,018.8,017.9,000.0,027.2,020.0,10.7,0000.0,0003.56,0002.23,0001.83
2024-01-08 15:31:00,SystemResetWarning,0822.6,4.99,000.00,018.8,017.9,000.0,027.2,020.0,10.7,0000.0,0003.81,0002.32,0001.86
2024-01-08 15:32:00,SystemResetWarning,0822.8,5.01,000.00,018.8,017.9,000.0,027.2,020.0,10.7,0000.0,0003.92,0002.38,0001.88
2024-01-08 15:33:00,SystemResetWarning,0822.8,5.01,000.00,018.8,017.9,000.0,027.2,020.0,10.8,0000.0,0003.64,0002.40,0001.89
2024-01-08 15:34:00,SystemResetWarning,0822.7,5.00,000.00,018.8,017.9,000.0,027.2,020.0,10.8,0000.0,0004.13,0002.43,0001.90
2024-01-08 15:35:00,SystemResetWarning,0823.1,4.98,000.00,018.8,017.9,000.0,027.2,020.0,10.8,0000.0,0004.45,0002.47,0001.92
2024-01-08 15:36:00,SystemResetWarning,0823.2,5.00,000.00,018.8,017.9,000.0,027.2,020.0,10.8,0000.0,0004.44,0002.47,0001.93
2024-01-08 15:37:00,SystemResetWarning,0823.4,5.00,000.00,018.8,017.9,000.0,027.2,020.0,10.9,0000.0,0004.57,0002.53,0001.93
2024-01-08 15:38:00,SystemResetWarning,0823.1,5.00,000.00,018.7,017.9,000.0,027.2,020.0,10.9,0000.0,0004.53,0002.52,0001.92
2024-01-08 15:39:00,SystemResetWarning,0823.2,5.00,000.00,018.7,017.9,000.0,027.2,020.1,10.9,0000.0,0004.54,0002.52,0001.90
2024-01-08 15:40:00,SystemResetWarning,0822.9,5.01,000.00,018.8,018.2,000.0,027.2,020.4,10.9,0000.0,0004.54,0002.50,0001.88
2024-01-08 15:41:00,SystemResetWarning,0823.0,5.01,000.00,019.0,019.0,000.0,027.2,020.8,10.9,0000.0,0004.63,0002.52,0001.87
2024-01-08 15:42:00,SystemResetWarning,0822.9,4.99,000.00,019.1,019.2,000.0,027.2,020.7,10.8,0000.0,0004.54,0002.52,0001.85
2024-01-08 15:43:00,SystemResetWarning,0822.9,4.99,000.00,019.0,019.0,000.0,027.2,020.4,10.9,0000.0,0004.42,0002.47,0001.84
2024-01-08 15:44:00,SystemResetWarning,0823.0,5.01,000.00,019.0,018.8,000.0,027.2,020.2,11.0,0000.0,0004.38,0002.45,0001.83
2024-01-08 15:45:00,SystemResetWarning,0822.9,5.01,000.00,019.0,018.7,000.0,027.2,020.1,11.0,0000.0,0003.77,0002.39,0001.82
2024-01-08 15:46:00,SystemResetWarning,0823.0,5.00,000.00,019.0,018.6,000.0,027.2,020.0,11.1,0000.0,0003.53,0002.32,0001.79
2024-01-08 15:47:00,SystemResetWarning,0822.9,5.00,000.00,018.9,018.5,000.0,027.2,020.0,11.2,0000.0,0003.50,0002.28,0001.77
2024-01-08 15:48:00,SystemResetWarning,0823.1,4.99,000.00,018.9,018.4,000.0,027.2,020.0,11.2,0000.0,0003.83,0002.24,0001.76
2024-01-08 15:49:00,SystemResetWarning,0822.9,4.99,000.00,018.9,018.3,000.0,027.2,020.0,11.3,0000.0,0004.36,0002.22,0001.76
2024-01-08 15:50:00,SystemResetWarning,0823.0,5.00,000.00,018.9,018.3,000.0,027.2,020.0,11.3,0000.0,0004.59,0002.20,0001.77
2024-01-08 15:51:00,SystemResetWarning,0823.0,5.00,000.00,018.8,018.2,000.0,027.2,020.0,11.4,0000.0,0004.59,0002.22,0001.77
2024-01-08 15:52:00,SystemResetWarning,0823.0,5.00,000.00,018.8,018.2,000.0,027.2,020.0,11.5,0000.0,0004.52,0002.21,0001.77
2024-01-08 15:53:00,SystemResetWarning,0823.1,5.00,000.00,018.8,018.2,000.0,027.2,020.0,11.6,0000.0,0004.44,0002.15,0001.77
2024-01-08 15:54:00,SystemResetWarning,0823.1,5.00,000.00,018.8,018.1,000.0,027.2,020.0,11.6,0000.0,0004.45,0002.14,0001.77
2024-01-08 15:55:00,SystemResetWarning,0823.0,5.00,000.00,018.8,018.1,000.0,027.2,020.0,11.6,0000.0,0004.90,0002.16,0001.77
2024-01-08 15:56:00,SystemResetWarning,0823.0,5.00,000.00,018.8,018.1,000.0,027.2,020.0,11.6,0000.0,0005.40,0002.24,0001.77
2024-01-08 15:57:00,SystemResetWarning,0823.0,5.00,000.00,018.8,018.1,000.0,027.3,020.0,11.6,0000.0,0005.36,0002.29,0001.78
2024-01-08 15:58:00,SystemResetWarning,0823.1,5.00,000.00,018.8,018.1,000.0,027.3,020.0,11.6,0000.0,0005.34,0002.33,0001.81
2024-01-08 15:59:00,SystemResetWarning,0823.1,5.00,000.00,018.8,018.1,000.0,027.2,020.0,11.6,0000.0,0005.22,0002.41,0001.83
